Location: Worcester
(42.2731°N, 71.8111°W)
Time: 10:16:11
(UTC-04:00)

Envisat - Visible Passes

Search period start: 18 September 2018 00:00
Search period end: 28 September 2018 00:00
Orbit: 764 x 766 km, 98.2° (Epoch: 18 September)

Date Brightness Start Highest point End Pass type
(mag) Time Alt. Az. Time Alt. Az. Time Alt. Az.
18 Sep 5.0 20:43:26 10° SSW 20:47:44 27° W 20:52:04 10° NW visible
19 Sep 3.5 20:05:49 10° S 20:10:49 61° W 20:15:52 10° NNW visible
20 Sep 3.0 19:29:07 10° SSE 19:34:06 62° ENE 19:39:08 10° N visible
20 Sep 5.7 21:10:30 10° SW 21:13:32 16° W 21:16:36 10° NW visible
21 Sep 4.6 20:31:53 10° SSW 20:36:29 34° W 20:41:07 10° NNW visible
22 Sep 3.2 19:54:33 10° S 19:59:38 77° WSW 20:04:44 10° NNW visible
23 Sep 3.2 19:18:06 10° SE 19:22:58 49° ENE 19:27:52 10° N visible
23 Sep 5.4 20:58:34 10° SW 21:02:14 20° W 21:05:57 10° NW visible
24 Sep 4.1 20:20:26 10° S 20:25:15 43° W 20:30:06 10° NNW visible
25 Sep 2.9 19:43:22 10° SSE 19:48:27 85° ENE 19:53:34 10° NNW visible
25 Sep 6.0 21:26:42 10° WSW 21:28:07 11° W 21:29:31 10° WNW visible
26 Sep 3.5 19:07:10 10° SE 19:11:51 39° ENE 19:16:33 10° N visible
26 Sep 5.1 20:46:50 10° SSW 20:50:58 25° W 20:55:09 10° NW visible
27 Sep 3.7 20:09:04 10° S 20:14:03 55° W 20:19:02 10° NNW visible
